{"data":{"norad_id":56356,"intl_designator":"2023-058AR","name":"STARLINK-5535","alt_names":[],"object_type":"PAYLOAD","status":"ACTIVE","operator":null,"country":"US","launch_date":"2023-04-27","launch_site_code":"AFWTR","launch_vehicle":null,"mission":null,"orbit_class":"UNKNOWN","rcs_meters":null,"size_class":null,"mass_kg":null,"dimensions":null,"purposes":["comms"],"wikipedia_slug":null,"has_3d_model":false,"image_url":null,"decayed_at":null,"tle_current":{"epoch":"2026-05-24T23:15:36.737280Z","epoch_age_seconds":80944,"freshness":"FRESH","line1":"1 56356U 23058AR  26144.96917520 -.00007573  00000+0 -52081-3 0  9991","line2":"2 56356  97.4490 146.0302 0001504  63.5829 296.5553 15.05689538169673","mean_motion":15.05689538,"eccentricity":0.0001504,"inclination_deg":97.449,"raan_deg":146.0302,"arg_perigee_deg":63.5829,"mean_anomaly_deg":296.5553,"bstar":-0.00052081,"rev_number":16967,"period_min":95.637245504989,"perigee_km":548.34797775544,"apogee_km":550.43177784029,"semimajor_km":6927.5268777979,"source":"CELESTRAK","updated_at":"2026-05-25T13:38:18.008560Z"}}}